User: anonymous   Login
Location: Kernascl�den
(48.0062°N, 3.3198°W)
Time: 08:41:08
(UTC+00:00)
Language:

Cosmos 1777 Rocket - Orbit

View from above orbital plane
View from above orbital plane
View from above satellite
View from above satellite

Ground track
Ground track

The orbit data is extracted from the following two-line orbital elements,

1 16953U 86070B   21103.04657861  .00000048  00000-0  24953-4 0  9998
2 16953  74.0125 224.2501 0011255 113.9252 246.3081 14.37421429812606
Epoch (UTC): 13 April 2021 01:07:04
Eccentricity: 0.0011255
inclination: 74.0125°
perigee height: 759 km
apogee height: 775 km
right ascension of ascending node: 224.2501°
argument of perigee: 113.9252°
revolutions per day: 14.37421429
mean anomaly at epoch: 246.3081°
orbit number at epoch: 81260

The dashed part of the orbit path shows where the satellite is in the earth's shadow,  

DLR